FW9056 Weather Reports


Display with metric or nautical units.
time (UTC)temp
F
wind
direction
speed
MPH
gust
MPH
rain 1hr
in
rain 24hr
in
rain mn
in
humidity
%
barometer
mb
20260508023602 42 0.0 0.0 0.00 0.00 0.00 95 1054.2
20260508022554 42 0.0 0.0 0.00 0.00 0.00 94 1054.2
20260508021633 42 0.0 0.0 0.00 0.00 0.00 94 1054.0
20260508020641 42 0.0 0.0 0.00 0.00 0.00 93 1054.0
20260508015027 42 0.0 0.0 0.00 0.00 0.00 93 1054.1
20260508014029 42 0.0 0.0 0.00 0.00 0.00 93 1053.9
20260508013027 43 0.0 0.0 0.00 0.00 0.00 92 1053.9
20260508012026 44 0.0 0.0 0.00 0.00 0.00 91 1053.9
20260508011020 44 0.0 0.0 0.00 0.00 0.00 92 1054.0
20260508010058 44 0.0 0.0 0.00 0.00 0.00 92 1054.1
20260508005319 44 0.0 0.0 0.00 0.00 0.00 92 1054.2
20260508004032 44 0.0 0.0 0.00 0.00 0.00 93 1054.2
20260508003027 44 0.0 0.0 0.00 0.00 0.00 93 1054.3
20260508002049 44 0.0 0.0 0.00 0.00 0.00 92 1054.2
20260508001116 44 0.0 0.0 0.00 0.00 0.00 92 1054.6
20260508000028 44 0.0 0.0 0.00 0.00 0.00 92 1054.6
20260507235045 44 0.0 0.0 0.00 0.00 0.00 92 1054.5
20260507234026 44 0.0 0.0 0.00 0.00 0.00 91 1054.4
20260507233052 44 0.0 0.0 0.00 0.00 0.00 90 1054.6
20260507232047 44 0.0 0.0 0.00 0.00 0.00 90 1054.6
20260507231037 44 0.0 0.0 0.00 0.00 0.00 89 1054.6
20260507230024 45 0.0 0.0 0.00 0.00 0.00 88 1054.6
20260507225042 45 0.0 0.0 0.00 0.00 0.00 88 1054.6
20260507224028 46 0.0 0.0 0.00 0.00 0.00 87 1054.7
20260507223152 47 0.0 0.0 0.00 0.00 0.00 85 1054.9
20260507222215 47 0.0 0.0 0.00 0.00 0.00 84 1054.7
20260507221102 48 0.0 0.0 0.00 0.00 0.00 83 1054.6
20260507220027 48 0.0 0.0 0.00 0.00 0.00 82 1054.6
20260507215037 48 0.0 0.0 0.00 0.00 0.00 81 1054.8
20260507214111 48 0.0 0.0 0.00 0.00 0.00 80 1054.6
20260507213247 48 0.0 0.0 0.00 0.00 0.00 79 1054.7
20260507212327 48 0.0 0.0 0.00 0.00 0.00 79 1054.3
20260507211042 48 0.0 0.0 0.00 0.00 0.00 79 1054.4
20260507210039 49 0.0 0.0 0.00 0.00 0.00 78 1054.3
20260507205139 49 0.0 0.0 0.00 0.00 0.00 79 1054.4
20260507204053 49 0.0 0.0 0.00 0.00 0.00 77 1054.2
20260507203028 49 0.0 0.0 0.00 0.00 0.00 76 1054.3
20260507202157 50 0.0 0.0 0.00 0.00 0.00 75 1054.0
20260507201020 50 0.0 0.0 0.00 0.00 0.00 74 1053.9
20260507200046 50 0.0 0.0 0.00 0.00 0.00 74 1053.8
20260507195026 51 0.0 0.0 0.00 0.00 0.00 73 1053.6
20260507193637 52 0.0 0.0 0.00 0.00 0.00 71 1053.8
20260507192646 53 0.0 0.0 0.00 0.00 0.00 69 1053.6
20260507191524 53 0.0 0.0 0.00 0.00 0.00 69 1053.5
20260507190548 54 0.0 0.0 0.00 0.00 0.00 67 1053.6
20260507185539 55 0.0 0.0 0.00 0.00 0.00 66 1053.5
20260507184703 55 0.0 0.0 0.00 0.00 0.00 64 1053.5
20260507183612 55 0.0 0.0 0.00 0.00 0.00 63 1053.5
20260507182612 55 0.0 0.0 0.00 0.00 0.00 62 1053.2
20260507181539 56 0.0 0.0 0.00 0.00 0.00 61 1053.2
20260507180536 56 0.0 0.0 0.00 0.00 0.00 61 1053.2
20260507175527 57 0.0 0.0 0.00 0.00 0.00 60 1053.2
20260507174606 57 0.0 0.0 0.00 0.00 0.00 59 1053.1
20260507173530 56 0.0 0.0 0.00 0.00 0.00 58 1052.9
20260507172531 56 0.0 0.0 0.00 0.00 0.00 58 1053.0
20260507171706 56 0.0 0.0 0.00 0.00 0.00 61 1053.1
20260507170706 56 0.0 0.0 0.00 0.00 0.00 61 1053.2
20260507165653 56 0.0 0.0 0.00 0.00 0.00 61 1053.2
20260507164759 57 0.0 0.0 0.00 0.00 0.00 59 1053.2
20260507163719 57 0.0 0.0 0.00 0.00 0.00 59 1053.2
20260507162606 58 0.0 0.0 0.00 0.00 0.00 55 1053.2
20260507161549 58 0.0 0.0 0.00 0.00 0.00 55 1053.2
20260507160551 59 0.0 0.0 0.00 0.00 0.00 54 1053.2
20260507155530 59 0.0 0.0 0.00 0.00 0.00 54 1053.2
20260507154533 59 0.0 0.0 0.00 0.00 0.00 53 1053.2
20260507153552 58 0.0 0.0 0.00 0.00 0.00 55 1053.2
20260507152533 57 0.0 0.0 0.00 0.00 0.00 54 1053.3
20260507151546 56 0.0 0.0 0.00 0.00 0.00 55 1053.4
20260507150542 55 0.0 0.0 0.00 0.00 0.00 58 1053.4
20260507145538 55 0.0 0.0 0.00 0.00 0.00 59 1053.3
20260507144602 55 0.0 0.0 0.00 0.00 0.00 60 1053.3
20260507143538 55 0.0 0.0 0.00 0.00 0.00 59 1053.4
20260507142558 55 0.0 0.0 0.00 0.00 0.00 59 1053.6
20260507141603 56 0.0 0.0 0.00 0.00 0.00 59 1053.6
20260507140536 56 0.0 0.0 0.00 0.00 0.00 59 1053.8
20260507135601 56 0.0 0.0 0.00 0.00 0.00 58 1053.7
20260507134602 56 0.0 0.0 0.00 0.00 0.00 58 1053.9
20260507133659 56 0.0 0.0 0.00 0.00 0.00 58 1053.6
20260507132656 57 0.0 0.0 0.00 0.00 0.00 58 1053.8
20260507131758 57 0.0 0.0 0.00 0.00 0.00 57 1053.7
20260507130530 58 0.0 0.0 0.00 0.00 0.00 54 1053.6
20260507125535 58 0.0 0.0 0.00 0.00 0.00 53 1053.6
20260507124705 58 0.0 0.0 0.00 0.00 0.00 53 1053.5
20260507123542 58 0.0 0.0 0.00 0.00 0.00 51 1053.6
20260507122801 58 0.0 0.0 0.00 0.00 0.00 54 1053.8
20260507121659 58 0.0 0.0 0.00 0.00 0.00 52 1053.7
20260507120546 58 0.0 0.0 0.00 0.00 0.00 51 1053.8
20260507115523 58 0.0 0.0 0.00 0.00 0.00 52 1053.9
20260507114705 58 0.0 0.0 0.00 0.00 0.00 52 1053.8
20260507113611 57 0.0 2.0 0.00 0.00 0.00 53 1053.8
20260507112530 57 0.0 0.0 0.00 0.00 0.00 52 1054.0
20260507111528 57 0.0 0.0 0.00 0.00 0.00 54 1053.9
20260507110600 57 0.0 0.0 0.00 0.00 0.00 54 1054.0
20260507105612 57 0.0 0.0 0.00 0.00 0.00 53 1054.1
20260507104527 56 0.0 0.0 0.00 0.00 0.00 54 1054.0
20260507103552 57 0.0 0.0 0.00 0.00 0.00 55 1054.1
20260507102639 57 0.0 0.0 0.00 0.00 0.00 56 1054.2
20260507101557 57 0.0 0.0 0.00 0.00 0.00 57 1054.2
20260507100548 56 0.0 0.0 0.00 0.00 0.00 55 1054.2
20260507095536 56 0.0 0.0 0.00 0.00 0.00 57 1054.2
20260507094528 56 0.0 0.0 0.00 0.00 0.00 60 1054.2
20260507093536 56 0.0 0.0 0.00 0.00 0.00 61 1054.2
20260507092552 57 0.0 2.0 0.00 0.00 0.00 58 1054.2
20260507091535 56 0.0 0.0 0.00 0.00 0.00 58 1054.1
20260507090551 56 0.0 0.0 0.00 0.00 0.00 59 1054.1
20260507090058 55 0.0 0.0 0.00 0.00 0.00 58 1054.3
20260507084524 54 0.0 0.0 0.00 0.00 0.00 62 1054.4
20260507083522 54 0.0 0.0 0.00 0.00 0.00 63 1054.6
20260507082539 54 0.0 0.0 0.00 0.00 0.00 64 1054.2
20260507081648 54 0.0 0.0 0.00 0.00 0.00 65 1054.4
20260507080611 53 0.0 0.0 0.00 0.00 0.00 65 1054.2
20260507075529 53 0.0 0.0 0.00 0.00 0.00 66 1054.3
20260507074557 52 0.0 0.0 0.00 0.00 0.00 69 1054.2
20260507073543 52 0.0 0.0 0.00 0.00 0.00 69 1054.4
20260507072539 51 0.0 0.0 0.00 0.00 0.00 69 1054.1
20260507071528 51 0.0 0.0 0.00 0.00 0.00 71 1054.2
20260507070529 51 0.0 0.0 0.00 0.00 0.00 70 1054.2
20260507065537 50 0.0 0.0 0.00 0.00 0.00 72 1053.9
20260507064526 50 0.0 0.0 0.00 0.00 0.00 71 1053.9
20260507063602 49 0.0 0.0 0.00 0.00 0.00 77 1054.1
20260507062601 49 0.0 0.0 0.00 0.00 0.00 77 1054.2
20260507061041 46 0.0 0.0 0.00 0.00 0.00 87 1053.9
20260507060047 44 0.0 0.0 0.00 0.00 0.00 93 1054.0
20260507055048 43 0.0 0.0 0.00 0.00 0.00 94 1053.9
20260507054052 43 0.0 0.0 0.00 0.00 0.00 94 1053.9
20260507053116 42 0.0 0.0 0.00 0.00 0.00 94 1053.9
20260507052047 42 0.0 0.0 0.00 0.00 0.00 94 1053.9
20260507051034 41 0.0 0.0 0.00 0.00 0.00 94 1053.8
20260507050057 41 0.0 0.0 0.00 0.00 0.00 94 1053.8
20260507045037 41 0.0 0.0 0.00 0.00 0.00 94 1053.6
20260507044059 41 0.0 0.0 0.00 0.00 0.00 94 1053.5
20260507043218 41 0.0 0.0 0.00 0.00 0.00 94 1053.5
20260507042021 41 0.0 0.0 0.00 0.00 0.00 93 1053.3
20260507041159 41 0.0 0.0 0.00 0.00 0.00 93 1053.5
20260507040041 42 0.0 0.0 0.00 0.00 0.00 92 1053.2
20260507035056 42 0.0 0.0 0.00 0.00 0.00 92 1053.1
20260507034201 43 0.0 0.0 0.00 0.00 0.00 92 1053.2
20260507033040 43 0.0 0.0 0.00 0.00 0.00 92 1053.2
20260507032149 43 0.0 0.0 0.00 0.00 0.00 91 1053.2
20260507031045 44 0.0 0.0 0.00 0.00 0.00 90 1053.3
20260507030111 44 0.0 0.0 0.00 0.00 0.00 90 1053.2
20260507025115 45 0.0 0.0 0.00 0.00 0.00 89 1053.2
20260507024054 45 0.0 0.0 0.00 0.00 0.00 88 1053.3